Location: Newark
(35.2672°N, 80.7344°W)
Time: 07:05:14
(UTC+00:00)

Tiros 1 - Pass Details

Date: 21 January 2020
Orbit: 631 x 664 km, 48.4° (Epoch: 17 February)

Event Time Altitude Azimuth Distance (km) Brightness Sun altitude
Rises 01:32:44 0° 309° (NW) 2,988 11.2 -35.3°
Reaches altitude 10° 01:35:06 10° 312° (NW) 2,077 10.2 -35.8°
Enters shadow 01:35:46 14° 314° (NW) 1,829 9.9 -35.9°
Maximum altitude 01:39:52 62° 34° (NE) 742 - -36.8°
Drops below altitude 10° 01:44:37 10° 115° (ESE) 2,074 - -37.7°
Sets 01:46:59 0° 119° (ESE) 2,983 - -38.2°
